CENTISPACE-1 S14 (62583 NORAD) Tracking and Keplerian Element Data

This shows tracking and keplerian element data for the satellite.

Feedback or suggestion? Click here.




ElementValue
Catalog62583
NameCENTISPACE-1 S14
Epoch Orbit325
Epoch Day35.20298079
Epoch Year2025
RAAN38.2271
Inclination54.9822
Eccentricity0.0011166
Argument of Perigee349.858
Mean Anonmoly10.2192
Mean Motion14.74687453
Decay Rate3.208E-05
L11 62583U 25007J 25035.20298079 .00003208 00000+0 50704-3 0 9991
L22 62583 54.9822 38.2271 0011166 349.8580 10.2192 14.74687453 3255



Live tracking and technical data element details for CENTISPACE-1 S14 (NORAD 62583). CENTISPACE-1 S14 can be tracked NOW for your location showing map with azimuth and elevation plus other details from your city location.







IsCatalogInMostPopularTable: catalog: 62583, numindb: 11
Update: records affected: 1



GetName: 62583 CENTISPACE-1 S14

Hit Count: updated at: Mon, 19 May 2025 02:39:10 GMT